Miller Place, New York, United States (11764)
Lat: 40.96N, Lon: 73W
Wx Zone: NYZ078
Local Info
Past Weather Observations for Today

NOTE: This archive is for the closest National Weather Service station to Miller Place. Information may differ from the station used for current weather conditions.

Click here for Long-term Archive

Time Weather Temperature Dewpoint Humidity Pressure Winds Precip Visibility
22:56
Clear
81°F / 27°C 70°F / 21°C 70% 29.8 in
(1009 mb)
SW 15 mph
(SW 24 kph)
- 10SM
21:56
Clear
81°F / 27°C 72°F / 22°C 74% 29.8 in
(1009 mb)
SW 8.1 mph
(SW 13 kph)
- 10SM
20:56
Clear
81°F / 27°C 72°F / 22°C 74% 29.83 in
(1010 mb)
SW 10.4 mph
(SW 17 kph)
- 10SM
19:56
Clear
81°F / 27°C 72°F / 22°C 74% 29.83 in
(1010 mb)
SW 9.2 mph
(SW 15 kph)
- 10SM
18:56
Clear
79°F / 26°C 72°F / 22°C 79% 29.83 in
(1010 mb)
SW 6.9 mph
(SW 11 kph)
- 10SM
17:56
Clear
81°F / 27°C 72°F / 22°C 74% 29.83 in
(1010 mb)
SSE 12.7 mph
(SSE 20 kph)
- 10SM
16:56
Clear
82°F / 28°C 72°F / 22°C 70% 29.83 in
(1010 mb)
SW 15 mph
(SW 24 kph)
- 10SM
15:56
Clear
84°F / 29°C 72°F / 22°C 66% 29.83 in
(1010 mb)
SW 10.4 mph
(SW 17 kph)
- 10SM
14:56
Clear
84°F / 29°C 73°F / 23°C 70% 29.86 in
(1011 mb)
S 11.5 mph
(S 19 kph)
- 10SM
13:56
Clear
84°F / 29°C 73°F / 23°C 70% 29.89 in
(1012 mb)
SW 11.5 mph
(SW 19 kph)
- 10SM
12:56
Clear
84°F / 29°C 73°F / 23°C 70% 29.89 in
(1012 mb)
S 12.7 mph
(S 20 kph)
- 10SM
11:56
Clear
86°F / 30°C 73°F / 23°C 66% 29.92 in
(1013 mb)
S 10.4 mph
(S 17 kph)
- 10SM
10:56
Clear
88°F / 31°C 73°F / 23°C 62% 29.92 in
(1013 mb)
S 9.2 mph
(S 15 kph)
- 10SM
09:56
Clear
86°F / 30°C 75°F / 24°C 70% 29.95 in
(1014 mb)
SW 8.1 mph
(SW 13 kph)
- 10SM
08:56
Partly Cloudy
86°F / 30°C 73°F / 23°C 66% 29.95 in
(1014 mb)
SW 8.1 mph
(SW 13 kph)
- 10SM
07:56
Clear
81°F / 27°C 75°F / 24°C 84% 29.95 in
(1014 mb)
S 5.8 mph
(S 9 kph)
- 9SM
07:39
Partly Cloudy
79°F / 26°C 73°F / 23°C 84% 29.95 in
(1014 mb)
SSE 6.9 mph
(SSE 11 kph)
- 9SM
07:07
Mostly Cloudy
Fog And Mist
77°F / 25°C 73°F / 23°C 89% 29.95 in
(1014 mb)
SSE 4.6 mph
(SSE 7 kph)
- 5SM
06:56
Partly Cloudy
Fog And Mist
75°F / 24°C 75°F / 24°C 100% 29.95 in
(1014 mb)
SSE 5.8 mph
(SSE 9 kph)
- 5SM
06:40
Partly Cloudy
Fog And Mist
75°F / 24°C 73°F / 23°C 94% 29.95 in
(1014 mb)
S 8.1 mph
(S 13 kph)
- 4SM
06:26
Mostly Cloudy
Fog And Mist
75°F / 24°C 73°F / 23°C 94% 29.95 in
(1014 mb)
SSE 3.5 mph
(SSE 6 kph)
- 3SM
06:14
Mostly Cloudy
Fog And Mist
75°F / 24°C 73°F / 23°C 94% 29.95 in
(1014 mb)
SW 3.5 mph
(SW 6 kph)
- 2 1/2SM
06:10
Partly Cloudy
Fog And Mist
75°F / 24°C 73°F / 23°C 94% 29.95 in
(1014 mb)
SW 3.5 mph
(SW 6 kph)
- 3SM
05:56
Clear
Fog And Mist
75°F / 24°C 73°F / 23°C 94% 29.95 in
(1014 mb)
SW 3.5 mph
(SW 6 kph)
- 4SM
04:56
Clear
Fog And Mist
73°F / 23°C 73°F / 23°C 100% 29.92 in
(1013 mb)
SW 3.5 mph
(SW 6 kph)
- 5SM
04:22
Partly Cloudy
Fog And Mist
75°F / 24°C 73°F / 23°C 94% 29.92 in
(1013 mb)
SSE 3.5 mph
(SSE 6 kph)
- 5SM
03:56
Overcast
Fog And Mist
75°F / 24°C 73°F / 23°C 94% 29.92 in
(1013 mb)
SW 3.5 mph
(SW 6 kph)
- 4SM
03:16
Mostly Cloudy
Fog And Mist
75°F / 24°C 73°F / 23°C 94% 29.92 in
(1013 mb)
SW 3.5 mph
(SW 6 kph)
- 3SM
02:56
Partly Cloudy
Fog And Mist
73°F / 23°C 73°F / 23°C 100% 29.92 in
(1013 mb)
S 6.9 mph
(S 11 kph)
- 5SM
02:10
Mostly Cloudy
Fog And Mist
75°F / 24°C 73°F / 23°C 94% 29.95 in
(1014 mb)
S 8.1 mph
(S 13 kph)
- 4SM
01:56
Partly Cloudy
Fog And Mist
73°F / 23°C 73°F / 23°C 100% 29.95 in
(1014 mb)
SSE 5.8 mph
(SSE 9 kph)
- 5SM
00:56
Clear
Fog And Mist
75°F / 24°C 73°F / 23°C 94% 29.95 in
(1014 mb)
SW 3.5 mph
(SW 6 kph)
- 6SM
Time Weather Temperature Dewpoint Humidity Pressure Winds Precip Visibility


Weather for websites

WeatherForYou.com, LLC is not responsible for any damages or problems caused by this service. Current weather conditions are obtained from the closest station including government and personal stations which may have varying degrees of accuracy. Weather forecasts are derived from the NOAA NDFD. Like all things, this site belongs to Jesus Christ... He just trusts me to maintain it. If you have any questions or comments email webmaster@weatherforyou.com

Copyright © 2014, WeatherForYou.com LLC. All rights reserved.